• In Deutschland
  • Länderverzeichnis
  • Für 7 Tage
  • Wassertemperatur
  • Satellitenkarten
  • Wetterkarte
  • Widgets
  • user-avatar
    Anmelden

    Stündliche Wetter Laszkar Gah

    Heute, 20 November, Montag

    Zeit Temperatur Niederschläge Wind Luftdruck Luftfeuchtigkeit
    00:00 +13°C° 0 mm 1 m/S 698 mmHg 28%
    01:00 +12°C° 0 mm 1 m/S 698 mmHg 29%
    02:00 +12°C° 0 mm 1 m/S 697 mmHg 30%
    03:00 +11°C° 0 mm 1 m/S 697 mmHg 32%
    04:00 +11°C° 0 mm 1 m/S 697 mmHg 33%
    05:00 +11°C° 0 mm 1 m/S 697 mmHg 32%
    06:00 +11°C° 0 mm 1 m/S 697 mmHg 32%
    07:00 +11°C° 0 mm 1 m/S 698 mmHg 32%
    08:00 +13°C° 0 mm 1 m/S 698 mmHg 28%
    09:00 +15°C° 0 mm 1 m/S 699 mmHg 25%
    10:00 +16°C° 0 mm 0 m/S 699 mmHg 21%
    11:00 +19°C° 0 mm 1 m/S 699 mmHg 20%
    12:00 +19°C° 0 mm 1 m/S 698 mmHg 19%
    13:00 +20°C° 0 mm 1 m/S 698 mmHg 18%
    14:00 +20°C° 0 mm 1 m/S 698 mmHg 17%
    15:00 +20°C° 0 mm 1 m/S 698 mmHg 17%
    16:00 +20°C° 0 mm 1 m/S 697 mmHg 17%
    17:00 +19°C° 0 mm 1 m/S 697 mmHg 18%
    18:00 +18°C° 0 mm 1 m/S 697 mmHg 20%
    19:00 +15°C° 0 mm 1 m/S 697 mmHg 21%
    20:00 +15°C° 0 mm 1 m/S 697 mmHg 22%
    21:00 +14°C° 0 mm 1 m/S 697 mmHg 23%
    22:00 +13°C° 0 mm 0 m/S 697 mmHg 24%
    23:00 +12°C° 0 mm 0 m/S 697 mmHg 25%

    Morgen, 21 November, Dienstag

    Zeit Temperatur Niederschläge Wind Luftdruck Luftfeuchtigkeit
    00:00 +11°C° 0 mm 0 m/S 697 mmHg 26%
    01:00 +11°C° 0 mm 0 m/S 696 mmHg 27%
    02:00 +10°C° 0 mm 0 m/S 696 mmHg 28%
    03:00 +10°C° 0 mm 0 m/S 696 mmHg 28%
    04:00 +11°C° 0 mm 1 m/S 696 mmHg 29%
    05:00 +11°C° 0 mm 1 m/S 696 mmHg 29%
    06:00 +11°C° 0 mm 1 m/S 696 mmHg 29%
    07:00 +11°C° 0 mm 1 m/S 696 mmHg 29%
    08:00 +13°C° 0 mm 1 m/S 697 mmHg 25%
    09:00 +16°C° 0 mm 1 m/S 698 mmHg 22%
    10:00 +19°C° 0 mm 1 m/S 698 mmHg 19%
    11:00 +17°C° 0 mm 0 m/S 698 mmHg 17%
    12:00 +18°C° 0 mm 0 m/S 697 mmHg 16%
    13:00 +19°C° 0 mm 0 m/S 697 mmHg 15%
    14:00 +19°C° 0 mm 0 m/S 696 mmHg 15%
    15:00 +19°C° 0 mm 0 m/S 696 mmHg 15%
    16:00 +20°C° 0 mm 1 m/S 696 mmHg 15%
    17:00 +19°C° 0 mm 1 m/S 696 mmHg 17%
    18:00 +16°C° 0 mm 1 m/S 695 mmHg 19%
    19:00 +15°C° 0 mm 1 m/S 695 mmHg 21%
    20:00 +15°C° 0 mm 1 m/S 695 mmHg 21%
    21:00 +14°C° 0 mm 1 m/S 695 mmHg 22%
    22:00 +14°C° 0 mm 1 m/S 695 mmHg 23%
    23:00 +14°C° 0 mm 2 m/S 695 mmHg 23%

    übermorgen, 22 November, Mittwoch

    Zeit Temperatur Niederschläge Wind Luftdruck Luftfeuchtigkeit
    00:00 +14°C° 0 mm 2 m/S 695 mmHg 23%
    01:00 +14°C° 0 mm 2 m/S 695 mmHg 23%
    02:00 +12°C° 0 mm 3 m/S 694 mmHg 23%
    03:00 +12°C° 0 mm 3 m/S 694 mmHg 24%
    04:00 +12°C° 0 mm 3 m/S 694 mmHg 24%
    05:00 +12°C° 0 mm 3 m/S 694 mmHg 24%
    06:00 +12°C° 0 mm 3 m/S 695 mmHg 24%
    07:00 +12°C° 0 mm 3 m/S 695 mmHg 24%
    08:00 +14°C° 0 mm 3 m/S 695 mmHg 20%
    09:00 +17°C° 0 mm 4 m/S 696 mmHg 17%
    10:00 +19°C° 0 mm 4 m/S 696 mmHg 14%
    11:00 +20°C° 0 mm 3 m/S 696 mmHg 13%
    12:00 +21°C° 0 mm 3 m/S 695 mmHg 11%
    13:00 +21°C° 0 mm 3 m/S 695 mmHg 10%
    14:00 +21°C° 0 mm 3 m/S 694 mmHg 10%
    15:00 +21°C° 0 mm 3 m/S 694 mmHg 10%
    16:00 +21°C° 0 mm 2 m/S 694 mmHg 10%
    17:00 +20°C° 0 mm 3 m/S 694 mmHg 11%
    18:00 +19°C° 0 mm 3 m/S 694 mmHg 12%
    19:00 +17°C° 0 mm 4 m/S 694 mmHg 12%
    20:00 +17°C° 0 mm 4 m/S 694 mmHg 12%
    21:00 +17°C° 0 mm 4 m/S 694 mmHg 12%
    22:00 +15°C° 0 mm 4 m/S 694 mmHg 12%
    23:00 +15°C° 0 mm 4 m/S 693 mmHg 12%

    23 November, Donnerstag

    Zeit Temperatur Niederschläge Wind Luftdruck Luftfeuchtigkeit
    00:00 +15°C° 0 mm 4 m/S 693 mmHg 12%
    01:00 +14°C° 0 mm 4 m/S 693 mmHg 12%
    02:00 +15°C° 0 mm 4 m/S 693 mmHg 12%
    03:00 +15°C° 0 mm 4 m/S 693 mmHg 12%
    04:00 +15°C° 0 mm 4 m/S 693 mmHg 11%
    05:00 +16°C° 0 mm 3 m/S 693 mmHg 12%
    06:00 +16°C° 0 mm 3 m/S 693 mmHg 12%
    07:00 +16°C° 0 mm 3 m/S 694 mmHg 12%
    08:00 +18°C° 0 mm 3 m/S 694 mmHg 11%
    09:00 +20°C° 0 mm 4 m/S 695 mmHg 11%
    10:00 +21°C° 0 mm 4 m/S 695 mmHg 10%
    11:00 +22°C° 0 mm 4 m/S 695 mmHg 10%
    12:00 +23°C° 0 mm 4 m/S 694 mmHg 10%
    13:00 +25°C° 0 mm 3 m/S 694 mmHg 10%
    14:00 +24°C° 0 mm 3 m/S 694 mmHg 10%
    15:00 +24°C° 0 mm 3 m/S 693 mmHg 10%
    16:00 +24°C° 0 mm 3 m/S 693 mmHg 11%
    17:00 +21°C° 0 mm 4 m/S 693 mmHg 12%
    18:00 +20°C° 0 mm 4 m/S 693 mmHg 13%
    19:00 +19°C° 0 mm 4 m/S 694 mmHg 15%
    20:00 +18°C° 0 mm 4 m/S 694 mmHg 16%
    21:00 +18°C° 0 mm 4 m/S 694 mmHg 17%
    22:00 +17°C° 0 mm 4 m/S 694 mmHg 18%
    23:00 +17°C° 0 mm 4 m/S 693 mmHg 19%

    24 November, Freitag

    Zeit Temperatur Niederschläge Wind Luftdruck Luftfeuchtigkeit
    00:00 +15°C° 0 mm 4 m/S 693 mmHg 20%
    01:00 +15°C° 0 mm 4 m/S 693 mmHg 21%
    02:00 +15°C° 0 mm 4 m/S 693 mmHg 21%
    03:00 +15°C° 0 mm 4 m/S 693 mmHg 21%
    04:00 +14°C° 0 mm 4 m/S 693 mmHg 21%
    05:00 +14°C° 0 mm 4 m/S 693 mmHg 21%
    06:00 +14°C° 0 mm 4 m/S 694 mmHg 21%
    07:00 +14°C° 0 mm 4 m/S 694 mmHg 20%
    08:00 +17°C° 0 mm 4 m/S 694 mmHg 18%
    09:00 +20°C° 0 mm 4 m/S 695 mmHg 15%
    10:00 +22°C° 0 mm 5 m/S 695 mmHg 13%
    11:00 +23°C° 0 mm 4 m/S 695 mmHg 13%
    12:00 +25°C° 0 mm 4 m/S 695 mmHg 13%
    13:00 +26°C° 0 mm 3 m/S 694 mmHg 13%
    14:00 +25°C° 0 mm 3 m/S 694 mmHg 15%
    15:00 +25°C° 0 mm 2 m/S 694 mmHg 16%
    16:00 +25°C° 0 mm 2 m/S 694 mmHg 17%
    17:00 +24°C° 0 mm 2 m/S 694 mmHg 18%
    18:00 +23°C° 0 mm 2 m/S 694 mmHg 19%
    19:00 +21°C° 0 mm 3 m/S 694 mmHg 19%
    20:00 +20°C° 0 mm 3 m/S 694 mmHg 20%
    21:00 +20°C° 0 mm 3 m/S 694 mmHg 21%
    22:00 +19°C° 0 mm 4 m/S 694 mmHg 22%
    23:00 +19°C° 0 mm 3 m/S 694 mmHg 23%

    25 November, Samstag

    Zeit Temperatur Niederschläge Wind Luftdruck Luftfeuchtigkeit
    00:00 +18°C° 0 mm 3 m/S 693 mmHg 24%
    01:00 +18°C° 0 mm 3 m/S 693 mmHg 25%
    02:00 +17°C° 0 mm 3 m/S 693 mmHg 26%
    03:00 +17°C° 0 mm 3 m/S 693 mmHg 26%
    04:00 +17°C° 0 mm 3 m/S 693 mmHg 27%
    05:00 +17°C° 0 mm 3 m/S 693 mmHg 27%
    06:00 +17°C° 0 mm 3 m/S 694 mmHg 28%
    07:00 +17°C° 0 mm 3 m/S 694 mmHg 28%
    08:00 +18°C° 0 mm 3 m/S 695 mmHg 26%
    09:00 +20°C° 0 mm 3 m/S 695 mmHg 23%
    10:00 +22°C° 0 mm 3 m/S 696 mmHg 20%
    11:00 +24°C° 0 mm 2 m/S 695 mmHg 20%
    12:00 +25°C° 0 mm 2 m/S 695 mmHg 19%
    13:00 +25°C° 0 mm 1 m/S 694 mmHg 19%
    14:00 +25°C° 0 mm 1 m/S 694 mmHg 20%
    15:00 +25°C° 0 mm 1 m/S 694 mmHg 21%
    16:00 +25°C° 0 mm 1 m/S 694 mmHg 21%
    17:00 +23°C° 0 mm 1 m/S 694 mmHg 23%
    18:00 +22°C° 0 mm 1 m/S 695 mmHg 25%
    19:00 +20°C° 0 mm 1 m/S 695 mmHg 27%
    20:00 +20°C° 0 mm 1 m/S 695 mmHg 28%
    21:00 +19°C° 0 mm 1 m/S 695 mmHg 28%
    22:00 +19°C° 0 mm 1 m/S 695 mmHg 29%
    23:00 +19°C° 0 mm 1 m/S 695 mmHg 29%
    Mehr zeigen